Franklin, NC

11:11 PM EDT on June 24, 2017 (GMT -0400)
Franklin

Weather History for K1A5 - March, 2013

Change the Weather History Date:

Friday, March 1, 2013

  Actual Average (KTOC) Record (KTOC)
Temperature  
Mean Temperature 35 °F -  
Max Temperature 40 °F 61 °F 80 °F (2017)
Min Temperature 31 °F 37 °F 34 °F (2015)
Degree Days  
Heating Degree Days 30    
Moisture  
Dew Point 25 °F    
Average Humidity 67    
Maximum Humidity 78    
Minimum Humidity 54    
Precipitation  
Precipitation 0.00 in - - ()
Sea Level Pressure  
Sea Level Pressure 29.90 in    
Wind  
Wind Speed 6 mph (NNW)    
Max Wind Speed 13 mph    
Max Gust Speed 16 mph    
Visibility 10 miles    
Events Snow    
Averages and records for this station are not official NWS values.
T = Trace of Precipitation, MM = Missing Value Source: NWS Daily Summary

Daily Weather History Graph

Daily Weather History Graph

Search for Another Location

Airport or City:

Trip Planner

Search our weather history database for the weather conditions in past years. The results will help you decide how hot, cold, wet, or windy it might be!

Date:

Astronomy

Mar. 01, 2013 Rise Set
Actual Time 7:02 AM EST 6:29 PM EST
Civil Twilight 6:37 AM EST 6:54 PM EST
Nautical Twilight 6:08 AM EST 7:24 PM EST
Astronomical Twilight 5:38 AM EST 7:53 PM EST
Moon 10:49 PM EST (3/1) 8:59 AM EST (3/1)
Length of Visible Light 12h 17m
Length of Day
11h 26m
Waning Gibbous, 83% of the Moon is Illuminated
Mar 1
Waning Gibbous
Mar 4
Last Quarter
Mar 11
New
Mar 19
First Quarter
Mar 27
Full

Hourly Weather History & Observations

Time (EST) Temp. Windchill Dew Point Humidity Pressure Visibility Wind Dir Wind Speed Gust Speed Precip Events Conditions
12:15 AM 32.0 °F 25.6 °F 22.8 °F 69% 29.92 in 10.0 mi NW 6.9 mph - N/A   Overcast
12:35 AM 32.0 °F 23.6 °F 23.0 °F 69% 29.92 in 10.0 mi WNW 10.4 mph - N/A   Overcast
12:55 AM 32.0 °F 24.2 °F 23.0 °F 69% 29.91 in 10.0 mi NW 9.2 mph - N/A   Overcast
1:15 AM 32.0 °F 24.2 °F 23.4 °F 70% 29.91 in 10.0 mi NW 9.2 mph - N/A   Overcast
1:35 AM 32.0 °F 27.5 °F 23.7 °F 71% 29.91 in 10.0 mi NW 4.6 mph - N/A   Overcast
2:15 AM 32.0 °F 27.5 °F 23.9 °F 72% 29.90 in 10.0 mi NW 4.6 mph - N/A   Overcast
2:35 AM 32.0 °F - 24.1 °F 73% 29.90 in 10.0 mi Calm Calm - N/A   Overcast
3:15 AM 31.8 °F 27.3 °F 24.6 °F 75% 29.88 in 10.0 mi WNW 4.6 mph - N/A   Overcast
3:35 AM 32.0 °F 28.7 °F 24.4 °F 74% 29.87 in 10.0 mi NW 3.5 mph - N/A   Overcast
3:55 AM 32.0 °F 26.4 °F 24.6 °F 74% 29.87 in 10.0 mi NNW 5.8 mph - N/A   Overcast
4:35 AM 32.0 °F 26.4 °F 24.4 °F 74% 29.89 in 10.0 mi NW 5.8 mph - N/A   Overcast
4:55 AM 32.0 °F 27.5 °F 24.4 °F 74% 29.90 in 10.0 mi NW 4.6 mph - N/A   Overcast
5:15 AM 32.0 °F 28.7 °F 24.4 °F 74% 29.90 in 10.0 mi NNW 3.5 mph - N/A   Overcast
5:35 AM 32.0 °F - 24.6 °F 74% 29.90 in 10.0 mi Calm Calm - N/A   Overcast
5:55 AM 32.0 °F 27.5 °F 24.6 °F 74% 29.91 in 10.0 mi NNW 4.6 mph - N/A   Overcast
6:15 AM 32.0 °F - 24.4 °F 74% 29.90 in 10.0 mi Calm Calm - N/A   Overcast
6:35 AM 32.0 °F - 24.8 °F 75% 29.90 in 10.0 mi Calm Calm - N/A   Overcast
7:15 AM 32.0 °F - 24.6 °F 74% 29.90 in 10.0 mi Calm Calm - N/A   Overcast
7:35 AM 32.2 °F - 24.8 °F 74% 29.90 in 10.0 mi Calm Calm - N/A   Overcast
7:55 AM 32.4 °F 29.1 °F 24.6 °F 73% 29.91 in 10.0 mi NNW 3.5 mph - N/A   Overcast
8:15 AM 32.9 °F - 24.4 °F 71% 29.92 in 10.0 mi Calm Calm - N/A   Overcast
8:35 AM 33.4 °F 30.4 °F 24.8 °F 71% 29.92 in 10.0 mi North 3.5 mph - N/A   Overcast
8:55 AM 33.8 °F 30.8 °F 24.6 °F 69% 29.92 in 10.0 mi WNW 3.5 mph - N/A   Overcast
9:15 AM 34.2 °F 29.0 °F 25.0 °F 69% 29.92 in 10.0 mi North 5.8 mph - N/A   Overcast
9:35 AM 34.7 °F 29.6 °F 25.2 °F 68% 29.92 in 10.0 mi North 5.8 mph - N/A   Overcast
10:15 AM 35.8 °F 30.9 °F 25.0 °F 65% 29.92 in 10.0 mi North 5.8 mph - N/A   Overcast
10:35 AM 36.7 °F - 25.0 °F 63% 29.92 in 10.0 mi Calm Calm - N/A   Overcast
11:15 AM 36.9 °F 30.1 °F 24.8 °F 62% 29.92 in 10.0 mi North 9.2 mph - N/A   Overcast
11:35 AM 37.4 °F 33.8 °F 25.0 °F 61% 29.92 in 10.0 mi NW 4.6 mph - N/A   Overcast
12:15 PM 39.2 °F 37.0 °F 25.0 °F 57% 29.91 in 10.0 mi North 3.5 mph - N/A   Overcast
12:35 PM 38.7 °F 32.4 °F 24.1 °F 56% 29.91 in 10.0 mi North 9.2 mph - N/A   Overcast
12:55 PM 39.0 °F 33.4 °F 24.1 °F 55% 29.90 in 10.0 mi North 8.1 mph 16.1 mph N/A   Overcast
1:15 PM 39.9 °F 33.9 °F 24.8 °F 55% 29.89 in 10.0 mi North 9.2 mph - N/A   Overcast
1:35 PM 39.7 °F 33.7 °F 24.6 °F 55% 29.88 in 10.0 mi North 9.2 mph 16.1 mph N/A   Overcast
1:55 PM 39.2 °F 34.2 °F 24.1 °F 55% 29.88 in 10.0 mi North 6.9 mph - N/A   Overcast
2:15 PM 39.4 °F 31.8 °F 24.4 °F 55% 29.87 in 10.0 mi North 12.7 mph - N/A   Overcast
2:35 PM 39.0 °F 32.3 °F 23.7 °F 54% 29.87 in 10.0 mi North 10.4 mph - N/A   Overcast
2:55 PM 39.2 °F 33.6 °F 24.6 °F 56% 29.87 in 10.0 mi North 8.1 mph - N/A   Overcast
3:15 PM 39.0 °F 31.8 °F 24.4 °F 56% 29.87 in 10.0 mi North 11.5 mph - N/A   Overcast
3:35 PM 39.4 °F 33.8 °F 25.3 °F 57% 29.87 in 10.0 mi North 8.1 mph - N/A   Overcast
3:55 PM 39.4 °F 35.2 °F 25.3 °F 57% 29.87 in 10.0 mi NW 5.8 mph - N/A   Mostly Cloudy
4:15 PM 39.6 °F 32.5 °F 25.2 °F 56% 29.88 in 10.0 mi North 11.5 mph - N/A   Overcast
4:35 PM 37.0 °F 33.3 °F 25.3 °F 63% 29.88 in 10.0 mi NNW 4.6 mph 9.2 mph N/A   Overcast
5:15 PM 36.7 °F 32.0 °F 25.0 °F 63% 29.89 in 10.0 mi NW 5.8 mph - N/A   Overcast
5:35 PM 36.5 °F 31.0 °F 24.6 °F 62% 29.89 in 10.0 mi NW 6.9 mph - N/A   Overcast
5:55 PM 36.0 °F 29.6 °F 24.4 °F 63% 29.89 in 10.0 mi NW 8.1 mph - N/A   Overcast
6:15 PM 36.0 °F 32.1 °F 24.6 °F 63% 29.90 in 10.0 mi NW 4.6 mph - N/A   Overcast
6:35 PM 35.8 °F 30.9 °F 23.9 °F 62% 29.90 in 10.0 mi NNW 5.8 mph - N/A   Overcast
6:55 PM 35.6 °F 31.7 °F 24.6 °F 64% 29.91 in 10.0 mi NW 4.6 mph - N/A   Overcast
7:15 PM 35.2 °F 31.2 °F 24.8 °F 66% 29.91 in 10.0 mi North 4.6 mph - N/A   Overcast
7:35 PM 35.1 °F 30.1 °F 24.8 °F 66% 29.91 in 10.0 mi North 5.8 mph - N/A   Overcast
7:55 PM 34.9 °F 29.9 °F 25.2 °F 68% 29.92 in 10.0 mi North 5.8 mph - N/A   Overcast
8:15 PM 34.7 °F 30.6 °F 24.8 °F 67% 29.91 in 10.0 mi NNW 4.6 mph - N/A   Overcast
8:35 PM 34.7 °F 29.6 °F 25.2 °F 68% 29.91 in 10.0 mi North 5.8 mph - N/A   Overcast
8:55 PM 34.2 °F 28.2 °F 25.5 °F 71% 29.91 in 10.0 mi NW 6.9 mph - N/A   Overcast
9:15 PM 34.3 °F 30.2 °F 25.5 °F 70% 29.92 in 10.0 mi NW 4.6 mph - N/A   Overcast
9:35 PM 34.2 °F 27.5 °F 25.7 °F 71% 29.92 in 10.0 mi WNW 8.1 mph - N/A   Overcast
9:55 PM 34.2 °F 31.2 °F 25.7 °F 71% 29.92 in 10.0 mi NNW 3.5 mph - N/A Snow Light Snow
10:15 PM 34.0 °F - 26.1 °F 73% 29.92 in 7.0 mi Calm Calm - N/A Snow Light Snow
10:55 PM 33.4 °F 29.1 °F 26.4 °F 75% 29.91 in 10.0 mi NNW 4.6 mph - N/A Snow Light Snow
11:15 PM 33.4 °F 29.1 °F 26.2 °F 75% 29.91 in 7.0 mi NW 4.6 mph - N/A Snow Light Snow
11:35 PM 33.3 °F - 26.4 °F 76% 29.90 in 5.0 mi Calm Calm - N/A Snow Light Snow
11:55 PM 32.9 °F 29.8 °F 26.8 °F 78% 29.90 in 7.0 mi NW 3.5 mph - N/A Snow Light Snow